Find Starlink 30765

NORAD ID: 58119 Int'l Des: 2023-162 Owner: SPXS Country: US Constellation: starlink operational
LEOCIRCULAR

当前视图

正在加载3D地球...

About Starlink 30765

Starlink 30765 (NORAD 58119) is a starlink constellation satellite (v2 mini) launched Oct 22, 2023 by SPXS of US. It operates in LEO, CIRCULAR orbit with a mass of 730.00 kg.

即将过境

Passes for default location (London). Set your location on the main map for personalized predictions.

高度历史

Loading altitude history...

两行轨道根数

1 58119U 23162B 26258.01370872 .00000890 00000-0 41869-4 0 9998
2 58119 43.0036 143.1254 0001280 266.0785 93.9921 15.27579229161265
Epoch: Sep 15, 2026 • Age: 21 hours

当前状态

高度 487.1 km
远地点 / 近地点 N/A
速度 7.63 km/s
星下点 43.16°N, 84.14°W
发射日期 Oct 22, 2023
运行时间 2.8 years
类型 internet

技术详情

分类 Payload
质量 730.00 kg
干质量 700.00 kg
长度 0.30 m
跨度 29.00 m
形状 ? Box + pan
制造商 SPXS
平台类型 Starlink V2M
阶段状态 In Orbit
所有者/国家 SPXS/US

Most Searched